[[{"header":{"parameterUnit":"m.s-1","parameterCategory":1,"la1":30.2991,"la2":30.254,"lo1":-89.0895,"lo2":-89.0444,"dy":0.0017,"dx":0.0017,"nx":28,"ny":28,"refTime":"2023-11-04T09:00:00:Z","depth":0,"parameterNumber":2,"parameterNumberName":"U-component_of_WINDS"},"data":[0,0,0,0,0,0,0,0,0,0,0,0,0,0,0,0,0,0,0,0,0,0,0,0,0,0,0,0,0,0,0,0,0,0,0,0,0,0,0,0,0,0,0,0,0,0,0,0,0,0,0,0,0,0,0,0,0,0,-3.5375,-3.5376,0,-3.5479,-3.548,-3.5481,-3.5419,-3.5416,-3.5413,-3.541,-3.5517,-3.5523,-3.5528,0,0,0,0,0,0,0,0,0,0,0,0,0,-3.5122,-3.5127,-3.5375,-3.5376,-3.5377,-3.5479,-3.548,-3.5482,-3.5419,-3.5415,-3.5412,-3.5408,-3.5515,-3.5522,-3.5529,0,0,0,0,0,0,0,0,0,0,0,0,0,-3.523,-3.5129,-3.5375,-3.5358,-3.5358,-3.5479,-3.548,-3.5482,-3.542,-3.5415,-3.5411,-3.5407,-3.5513,-3.5521,-3.553,-3.5672,0,0,-3.5555,-3.5559,0,0,0,0,0,0,0,0,-3.5224,-3.5239,-3.5359,-3.536,-3.5359,-3.5431,-3.5431,-3.5546,-3.5421,-3.5396,-3.541,-3.5404,-3.5492,-3.5502,-3.5532,-3.5677,-3.5682,-3.5556,-3.5561,-3.5565,-3.5567,0,0,0,0,0,0,0,-3.5217,-3.5234,-3.5416,-3.5361,-3.5361,-3.5346,-3.5357,-3.5452,-3.5468,-3.5398,-3.5394,-3.5407,-3.5491,-3.5524,-3.5534,-3.5683,-3.5556,-3.5564,-3.5569,-3.5572,-3.5954,-3.5958,0,0,0,0,0,0,-3.521,-3.5229,-3.5413,-3.5419,-3.5279,-3.5354,-3.5366,-3.5413,-3.5467,-3.5471,-3.5411,-3.5404,-3.5511,-3.5524,-3.5537,-3.571,-3.5565,-3.5573,-3.5578,-3.5949,-3.5955,-3.596,0,0,0,0,0,0,-3.5205,-3.5227,-3.5408,-3.5323,-3.5345,-3.5364,-3.5417,-3.5417,-3.5449,-3.5477,-3.5479,-3.5441,-3.5508,-3.5525,-3.564,-3.5713,-3.5577,-3.5584,-3.5943,-3.5951,-3.5958,-3.6055,0,0,0,0,0,0,-3.5198,-3.5226,-3.528,-3.5324,-3.535,-3.5509,-3.5421,-3.5422,-3.5464,-3.5456,-3.5505,-3.5509,-3.5506,-3.5627,-3.5648,-3.5722,-3.5591,-3.5936,-3.5946,-3.5955,-3.6046,-3.6065,-3.6082,0,0,0,0,0,-3.5189,-3.5303,-3.5283,-3.5305,-3.5418,-3.5514,-3.5528,-3.5522,-3.547,-3.5525,-3.5543,-3.5508,-3.5701,-3.564,-3.5662,-3.574,-3.5932,-3.5943,-3.5954,-3.6037,-3.6061,-3.6082,0,0,0,0,0,0,-3.5266,-3.5308,-3.5287,-3.5418,-3.5463,-3.5503,-3.5572,-3.5547,-3.5607,-3.5597,-3.5586,-3.5598,-3.5718,-3.574,-3.5671,-3.5882,-3.5808,-3.5825,-3.5864,-3.5887,-3.5904,-3.5898,-3.5598,0,0,0,0,0,-3.5298,-3.5372,-3.5405,-3.5518,-3.5541,-3.5553,-3.5594,-3.5586,-3.5632,-3.565,-3.5676,-3.5723,-3.5794,-3.5841,-3.5907,-3.6048,-3.6059,-3.6112,-3.613,-3.6145,-3.616,-3.6238,-3.6263,-3.5998,-3.5997,-3.5997,0,0,-3.5365,-3.5398,-3.5445,-3.5534,-3.5568,-3.5646,-3.5569,-3.5654,-3.5713,-3.5663,-3.5774,-3.5794,-3.5845,-3.5974,-3.6032,-3.5996,-3.6236,-3.616,-3.6171,-3.6178,-3.6253,-3.6278,-3.63,-3.6005,-3.6004,-3.6003,0,0,-3.5528,-3.5559,-3.5658,-3.5693,-3.5745,-3.5753,-3.5776,-3.5821,-3.5833,-3.5943,-3.5909,-3.5977,-3.6099,-3.6138,-3.6173,-3.6352,-3.6323,-3.6374,-3.647,-3.6546,-3.6567,-3.6586,-3.6652,-3.6676,-3.6389,-3.6389,-3.6389,0,-3.5606,-3.5722,-3.5711,-3.58,-3.5841,-3.58,-3.5901,-3.5935,-3.6007,-3.6037,-3.5995,-3.6149,-3.618,-3.6318,-3.6362,-3.6391,-3.6419,-3.637,-3.6565,-3.6584,-3.6601,-3.6664,-3.6689,-3.6395,-3.6394,-3.6394,-3.6393,0,-3.5815,-3.5896,-3.5969,-3.6041,-3.6089,-3.6183,-3.6188,-3.6239,-3.6226,-3.6238,-3.6352,-3.6388,-3.6462,-3.6494,-3.6482,-3.6631,-3.6608,-3.6566,-3.6492,-3.6633,-3.6692,-3.6716,-3.6404,-3.6401,-3.64,-3.6398,0,0,-3.603,-3.6095,-3.6123,-3.6155,-3.621,-3.6273,-3.6365,-3.6438,-3.6483,-3.6533,-3.6612,-3.6717,-3.6679,-3.672,-3.6711,-3.6778,-3.6921,-3.6728,-3.6729,-3.6765,-3.7091,-3.7124,-3.7152,-3.6901,-3.6905,-3.6909,-3.7087,0,-3.6199,-3.6361,-3.6356,-3.6507,-3.6583,-3.6546,-3.6626,-3.6669,-3.6683,-3.6749,-3.6764,-3.684,-3.6782,-3.6807,-3.6871,-3.689,-3.6986,-3.6876,-3.6976,-3.6979,-3.6967,-3.7183,-3.7218,-3.7385,-3.711,-3.7114,-3.7117,0,-3.6417,-3.6477,-3.6636,-3.6682,-3.6713,-3.6786,-3.6854,-3.6917,-3.6966,-3.6971,-3.7017,-3.6998,-3.7093,-3.7015,-3.7147,-3.7072,-3.7112,-3.7128,-3.7134,-3.7145,-3.7058,-3.7202,-3.7437,-3.7463,-3.7153,-3.715,-3.7147,0,-3.6562,-3.6681,-3.6793,-3.6821,-3.6876,-3.6929,-3.6954,-3.6998,-3.7043,-3.7101,-3.7131,-3.72,-3.7238,-3.7292,-3.7293,-3.7236,-3.7428,-3.7349,-3.7436,-3.7437,-3.748,-3.7478,-3.7728,-3.7502,-3.7501,-3.7501,-3.75,0,-3.6752,-3.6852,-3.6859,-3.6928,-3.7039,-3.7031,-3.7141,-3.7161,-3.7201,-3.7274,-3.7244,-3.7313,-3.7309,-3.7379,-3.738,-3.7491,-3.7507,-3.7516,-3.7515,-3.752,-3.7519,-3.7548,-3.7537,-3.7507,-3.7506,-3.7505,-3.7504,0,-3.6934,-3.6941,-3.7061,-3.7104,-3.7117,-3.7197,-3.7234,-3.73,-3.731,-3.7403,-3.7424,-3.7442,-3.7523,-3.7529,-3.7622,-3.7623,-3.7758,-3.7743,-3.7742,-3.7741,-3.7829,-3.7821,-3.8108,-3.8146,-3.7892,-3.7895,-3.7897,0,-3.7056,-3.7132,-3.7183,-3.723,-3.7259,-3.7334,-3.738,-3.7376,-3.7425,-3.7486,-3.7546,-3.7624,-3.7687,-3.7818,-3.784,-3.7912,-3.79,-3.7996,-3.7911,-3.7914,-3.7905,-3.7902,-3.7911,-3.8013,-3.8016,-3.8018,-3.802,0,-3.7273,-3.7274,-3.7341,-3.7411,-3.7467,-3.7522,-3.7572,-3.7612,-3.7614,-3.7671,-3.7754,-3.7803,-3.7899,-3.7978,-3.8048,-3.8075,-3.8049,-3.8046,-3.8071,-3.8078,-3.8075,-3.8081,-3.779,-3.804,-3.8038,-3.8037,-3.8036,-3.8035,-3.7431,-3.7498,-3.7545,-3.7622,-3.7659,-3.7708,-3.7773,-3.7792,-3.7861,-3.794,-3.7932,-3.8025,-3.8072,-3.8164,-3.8196,-3.8269,-3.8237,-3.8272,-3.8281,-3.8291,-3.8301,-3.8061,-3.8282,-3.8281,-3.8281,-3.828,-3.828,0,-3.7649,-3.7677,-3.7748,-3.7821,-3.7882,-3.7851,-3.7906,-3.7959,-3.8041,-3.8088,-3.815,-3.8247,-3.8323,-3.8351,-3.8426,-3.8479,-3.8469,-3.8499,-3.8497,-3.8504,-3.8324,-3.8297,-3.8506,-3.8506,-3.8506,-3.8506,-3.8506,-3.8506,-3.777,-3.7882,-3.7889,-3.802,-3.8047,-3.8139,-3.8173,-3.8218,-3.8255,-3.8365,-3.8429,-3.8446,-3.8485,-3.8563,-3.8633,-3.8639,-3.8669,-3.8705,-3.8706,-3.8539,-3.8516,-3.8494,-3.8469,-3.8711,-3.8711,-3.888,-3.8881,-3.8883]},{"header":{"parameterUnit":"m.s-1","parameterCategory":1,"la1":30.2991,"la2":30.254,"lo1":-89.0895,"lo2":-89.0444,"dy":0.0017,"dx":0.0017,"nx":28,"ny":28,"refTime":"2023-11-04T09:00:00:Z","depth":0,"parameterNumber":3,"parameterNumberName":"V-component_of_WINDS"},"data":[0,0,0,0,0,0,0,0,0,0,0,0,0,0,0,0,0,0,0,0,0,0,0,0,0,0,0,0,0,0,0,0,0,0,0,0,0,0,0,0,0,0,0,0,0,0,0,0,0,0,0,0,0,0,0,0,0,0,-2.3728,-2.3728,0,-2.3736,-2.3736,-2.3736,-2.3692,-2.3691,-2.369,-2.3689,-2.3697,-2.3698,-2.3699,0,0,0,0,0,0,0,0,0,0,0,0,0,-2.3675,-2.3676,-2.3728,-2.3728,-2.3728,-2.3736,-2.3736,-2.3736,-2.3693,-2.3691,-2.369,-2.3688,-2.3696,-2.3698,-2.37,0,0,0,0,0,0,0,0,0,0,0,0,0,-2.3692,-2.3677,-2.3728,-2.3708,-2.3706,-2.3736,-2.3736,-2.3736,-2.3693,-2.3691,-2.3689,-2.3688,-2.3696,-2.3698,-2.37,-2.375,0,0,-2.3706,-2.3707,0,0,0,0,0,0,0,0,-2.3691,-2.3694,-2.3711,-2.3709,-2.3707,-2.3711,-2.372,-2.3741,-2.3693,-2.3698,-2.3689,-2.3687,-2.3703,-2.3704,-2.371,-2.375,-2.3751,-2.3706,-2.3708,-2.3708,-2.3709,0,0,0,0,0,0,0,-2.369,-2.3693,-2.3731,-2.3711,-2.3709,-2.3698,-2.3698,-2.3724,-2.3711,-2.3697,-2.3694,-2.3696,-2.3702,-2.3708,-2.371,-2.3751,-2.3706,-2.3708,-2.3709,-2.371,-2.3831,-2.3833,0,0,0,0,0,0,-2.3692,-2.3693,-2.3731,-2.3731,-2.3694,-2.37,-2.3701,-2.3712,-2.371,-2.3708,-2.3697,-2.3694,-2.3706,-2.3707,-2.371,-2.3768,-2.3708,-2.371,-2.3712,-2.3829,-2.3831,-2.3833,0,0,0,0,0,0,-2.3691,-2.3695,-2.3731,-2.3711,-2.3715,-2.3703,-2.3716,-2.3713,-2.3719,-2.371,-2.3708,-2.3706,-2.3704,-2.3707,-2.374,-2.3767,-2.3711,-2.3713,-2.3827,-2.383,-2.3832,-2.3884,0,0,0,0,0,0,-2.3689,-2.3695,-2.3715,-2.3712,-2.3716,-2.3761,-2.3718,-2.3714,-2.3723,-2.3718,-2.3718,-2.3716,-2.3703,-2.3737,-2.3742,-2.3769,-2.3715,-2.3824,-2.3828,-2.3831,-2.388,-2.3889,-2.3896,0,0,0,0,0,-2.3688,-2.3729,-2.3716,-2.3721,-2.374,-2.3763,-2.3765,-2.3749,-2.3725,-2.3744,-2.3738,-2.3716,-2.3763,-2.3741,-2.3746,-2.3774,-2.3822,-2.3827,-2.3831,-2.3876,-2.3887,-2.3896,0,0,0,0,0,0,-2.3736,-2.3729,-2.3714,-2.3756,-2.376,-2.3755,-2.3779,-2.376,-2.3772,-2.3767,-2.3746,-2.3746,-2.3783,-2.3782,-2.3756,-2.3822,-2.3789,-2.3794,-2.3821,-2.3831,-2.3839,-2.3839,-2.3716,0,0,0,0,0,-2.3752,-2.3771,-2.3763,-2.3801,-2.3804,-2.3791,-2.3801,-2.3787,-2.3791,-2.3793,-2.3789,-2.3794,-2.3809,-2.382,-2.3834,-2.3879,-2.3878,-2.3901,-2.3909,-2.3916,-2.3921,-2.3944,-2.3954,-2.3848,-2.3848,-2.3848,0,0,-2.3784,-2.3783,-2.3796,-2.3811,-2.3813,-2.3833,-2.3793,-2.3816,-2.3831,-2.3796,-2.3827,-2.3824,-2.3828,-2.3867,-2.3884,-2.3867,-2.395,-2.3921,-2.3927,-2.3928,-2.3949,-2.3959,-2.3968,-2.3851,-2.385,-2.385,0,0,-2.3854,-2.3855,-2.3886,-2.3888,-2.3891,-2.3882,-2.3889,-2.3887,-2.3884,-2.3914,-2.3888,-2.3905,-2.3932,-2.3936,-2.3941,-2.4009,-2.3989,-2.4015,-2.4056,-2.4079,-2.4087,-2.4095,-2.4119,-2.4128,-2.402,-2.402,-2.402,0,-2.3894,-2.3923,-2.3904,-2.3929,-2.3936,-2.3904,-2.3935,-2.3939,-2.3946,-2.3951,-2.3932,-2.3965,-2.3966,-2.4004,-2.4021,-2.4026,-2.4034,-2.4015,-2.4088,-2.4095,-2.4101,-2.4124,-2.4133,-2.4023,-2.4023,-2.4022,-2.4022,0,-2.3972,-2.3993,-2.4018,-2.4025,-2.4034,-2.4062,-2.4047,-2.4058,-2.4044,-2.4037,-2.4067,-2.4066,-2.4079,-2.4087,-2.4073,-2.4124,-2.4113,-2.4091,-2.4058,-2.4115,-2.4136,-2.4144,-2.4027,-2.4026,-2.4025,-2.4024,0,0,-2.4075,-2.4069,-2.4079,-2.4081,-2.4081,-2.4096,-2.4122,-2.4134,-2.4144,-2.415,-2.4171,-2.4194,-2.4173,-2.4179,-2.4165,-2.4185,-2.4239,-2.4161,-2.416,-2.4175,-2.4294,-2.431,-2.4321,-2.4225,-2.4227,-2.4228,-2.4293,0,-2.4142,-2.4186,-2.4168,-2.4213,-2.4231,-2.4201,-2.4223,-2.4226,-2.4219,-2.4233,-2.4226,-2.4242,-2.4214,-2.4217,-2.4235,-2.4229,-2.4263,-2.4224,-2.4244,-2.4245,-2.4245,-2.4332,-2.435,-2.4411,-2.4301,-2.4303,-2.4304,0,-2.4228,-2.4236,-2.4282,-2.4278,-2.4285,-2.4305,-2.4314,-2.4328,-2.4329,-2.4323,-2.4329,-2.431,-2.4334,-2.43,-2.4333,-2.4307,-2.4314,-2.4312,-2.4314,-2.4316,-2.4278,-2.4336,-2.443,-2.444,-2.4317,-2.4316,-2.4315,0,-2.4297,-2.432,-2.435,-2.4353,-2.4348,-2.4363,-2.4362,-2.4361,-2.4369,-2.4377,-2.4381,-2.4392,-2.4398,-2.4406,-2.4391,-2.4368,-2.4426,-2.4391,-2.4421,-2.4422,-2.4435,-2.4435,-2.4533,-2.444,-2.444,-2.444,-2.4439,0,-2.4375,-2.4404,-2.4381,-2.44,-2.4432,-2.4411,-2.4443,-2.4438,-2.4438,-2.4455,-2.4429,-2.4446,-2.4424,-2.4439,-2.4427,-2.4456,-2.4459,-2.4454,-2.4451,-2.4456,-2.4457,-2.4461,-2.4457,-2.4442,-2.4441,-2.4441,-2.4441,0,-2.4458,-2.4444,-2.4475,-2.4467,-2.4466,-2.449,-2.4483,-2.45,-2.4491,-2.4513,-2.4517,-2.4503,-2.4518,-2.4503,-2.4518,-2.451,-2.4548,-2.4539,-2.4548,-2.4545,-2.4577,-2.4574,-2.4681,-2.4694,-2.4593,-2.4594,-2.4594,0,-2.4509,-2.4531,-2.4525,-2.4534,-2.4534,-2.455,-2.4557,-2.4537,-2.4546,-2.4548,-2.4565,-2.4578,-2.4587,-2.4613,-2.4604,-2.4615,-2.4606,-2.4642,-2.4607,-2.4612,-2.4606,-2.4605,-2.4607,-2.465,-2.4651,-2.4652,-2.4653,0,-2.46,-2.4592,-2.4603,-2.4612,-2.4621,-2.4627,-2.4631,-2.464,-2.4619,-2.463,-2.4645,-2.4653,-2.4667,-2.468,-2.4688,-2.4687,-2.4666,-2.4663,-2.4671,-2.4678,-2.4682,-2.468,-2.4568,-2.4661,-2.4661,-2.466,-2.4659,-2.4659,-2.4669,-2.4686,-2.4685,-2.4698,-2.4699,-2.4703,-2.4718,-2.471,-2.4722,-2.4732,-2.4719,-2.4737,-2.4737,-2.4745,-2.4746,-2.476,-2.4744,-2.4756,-2.4758,-2.4761,-2.4766,-2.4679,-2.4761,-2.4761,-2.4761,-2.476,-2.476,0,-2.4759,-2.4756,-2.4768,-2.4774,-2.4784,-2.4763,-2.4766,-2.4776,-2.4792,-2.4793,-2.4802,-2.4819,-2.4832,-2.4823,-2.4833,-2.4846,-2.4837,-2.485,-2.4849,-2.4848,-2.4779,-2.4772,-2.4857,-2.4857,-2.4857,-2.4857,-2.4857,-2.4857,-2.4807,-2.4835,-2.4826,-2.4854,-2.485,-2.4868,-2.4871,-2.4875,-2.4875,-2.4895,-2.4904,-2.4898,-2.4895,-2.4905,-2.4915,-2.4912,-2.4917,-2.4933,-2.4927,-2.4863,-2.4853,-2.4844,-2.4837,-2.4934,-2.4935,-2.4995,-2.4995,-2.4996]}]]